Location: Lane
(33.5226°N, 79.8788°W)
Time: 07:34:18
(UTC+00:00)

Tiros 1 despin weight - Pass Details

Date: 08 October 2022
Orbit: 590 x 637 km, 48.2° (Epoch: 28 November)

Event Time Altitude Azimuth Distance (km) Brightness Sun altitude
Rises 21:17:16 0° 298° (WNW) 2,839 ? 18.8°
Reaches altitude 10° 21:20:50 10° 327° (NNW) 1,949 ? 18.1°
Maximum altitude 21:22:50 13° 354° (N) 1,782 ? 17.7°
Drops below altitude 10° 21:24:50 10° 21° (NNE) 1,963 ? 17.4°
Sets 21:28:28 0° 50° (NE) 2,882 ? 16.6°
